Lexington Weather

Lexington, Massachusetts, USA

45°F
9/20/2020 11:40pm 
  • Lexington Conditions: Clear
  • Temperature: 44.8°F / 7.1°CWarmer 1.5°F than last hour.
  • Dew Point: 37.9°FIncreased 1.0°Fsince last hour.
  • Relative Humidity: 77%Decreased 1.0% since last hour.
  • Wind: Calm, 10-min avg: Calm, gust: None
  • Barometer: 30.53 in Steady
  • Visibility: 10 miles
  • Rain Today: 0.00 in
  •   
Southeast Middlesex County - Special Weather Statement - Special Weather Statement
 - SEE ALL NEARBY ALERTS -

Regional Weather Roundup
for Boston / Norton, MA

        
000
ASUS41 KBOX 171104
RWRBOX

REGIONAL WEATHER ROUNDUP
NATIONAL WEATHER SERVICE BOSTON/NORTON MA
700 AM EDT THU SEP 17 2020

NOTE:  "FAIR" INDICATES FEW OR NO CLOUDS BELOW 12,000 FEET WITH NO 
SIGNIFICANT WEATHER AND/OR OBSTRUCTIONS TO VISIBILITY.

MAZALL-171200-
EASTERN MASSACHUSETTS
  
CITY           SKY/WX    TMP DP  RH WIND       PRES   REMARKS
BOSTON         PTCLDY    59  56  89 SW10      30.03F                  
BEVERLY        CLEAR     59  55  87 SW5       30.02S                  
LAWRENCE       CLEAR     57  55  93 S6        30.04S                  
BEDFORD        CLEAR     57  54  89 SW6       30.02S                  
BLUE HILL        N/A     58  55  90 SW15      30.03S                  
NORWOOD        CLEAR     52  50  93 CALM      30.04S                  
MARSHFIELD     CLEAR     61  61 100 SW3       30.04S                  
PLYMOUTH       CLEAR     60  59  96 CALM      30.05S                  
TAUNTON        FOG       56  53  90 CALM      30.05S VSB 1/4          
NEW BEDFORD    PTCLDY    57  56  96 CALM      30.05S FOG              
$$

MAZALL-171200-
CAPE COD AND THE ISLANDS
  
CITY           SKY/WX    TMP DP  RH WIND       PRES   REMARKS
FALMOUTH       CLEAR     63  59  88 W6        30.06S                  
HYANNIS        CLEAR     62  59  90 CALM      30.06R                  
CHATHAM        CLEAR     64  59  83 VRB3      30.08R                  
PROVINCETOWN   CLEAR     62  60  93 SW9       30.06S                  
NANTUCKET      CLEAR     65  62  90 W6        30.08R                  
MARTHAS VNYRD  CLEAR     62  61  96 SW3       30.07S                  
$$
 
MAZALL-171200-
CENTRAL AND WESTERN MASSACHUSETTS
  
CITY           SKY/WX    TMP DP  RH WIND       PRES   REMARKS
WORCESTER      CLEAR     57  52  83 W10       30.04S                  
FITCHBURG      CLEAR     59  53  80 CALM      30.03S                  
ORANGE         CLEAR     49  47  93 CALM      30.04S FOG              
SPRINGFIELD    CLEAR     51  49  95 CALM      30.02F                  
WESTFIELD      CLEAR     51  51 100 CALM      30.03S                  
NORTH ADAMS    PTCLDY    47  45  93 CALM      30.04S                  
PITTSFIELD     MOCLDY    48  47  96 W3        30.03S FOG              
$$
 
RIZALL-171200-
RHODE ISLAND
  
CITY           SKY/WX    TMP DP  RH WIND       PRES   REMARKS
PROVIDENCE     MOCLDY    57  56  96 S3        30.06S                  
NEWPORT        PTCLDY    64  57  78 CALM      30.05F                  
BLOCK ISLAND   PTCLDY    64  60  87 SW7       30.06F                  
SMITHFIELD     CLEAR     58  57  97 SW3       30.06S                  
WESTERLY       MOCLDY    58  55  90 N5        30.06S                  
$$
 
CTZALL-171200-
CONNECTICUT
  
CITY           SKY/WX    TMP DP  RH WIND       PRES   REMARKS
BRADLEY INTL   MOCLDY    54  53  97 SE3       30.04S                  
HARTFORD       CLEAR     58  55  90 S5        30.04F                  
BRIDGEPORT     CLOUDY    63  59  87 W3        30.05S                  
DANBURY        MOCLDY    53  52  96 CALM      30.06F                  
GROTON         PTCLDY    59  55  87 N3        30.05S                  
NEW HAVEN      CLOUDY    65  60  84 SW6       30.05S                  
CHESTER        FAIR      59  57  94 CALM      30.06S                  
MERIDEN        MOCLDY    55  53  93 CALM      30.05S                  
WILLIMANTIC    CLOUDY    49  48  97 CALM      30.06S FOG              
OXFORD         PTCLDY    56  56 100 SW3       30.06F                  
$$

MEZ002-015-021-024-NHZ003-005-008-011-012-014-VTZ005-008-171200-
NORTHERN NEW ENGLAND
  
CITY           SKY/WX    TMP DP  RH WIND       PRES   REMARKS
PORTLAND ME    CLEAR     58  55  90 SW8       29.99S                  
BANGOR ME      PTCLDY    57  53  86 S6        29.96R                  
CONCORD NH     CLEAR     50  49  96 CALM      30.01S                  
MANCHESTER NH  PTCLDY    58  53  84 S6        30.00S                  
NASHUA NH      CLEAR     52  52 100 CALM      30.02F                  
PORTSMOUTH NH  MOCLDY    58  54  86 SW8       29.99F                  
JAFFREY NH     PTCLDY    55  52  89 S6        30.03S                  
KEENE NH       MOCLDY    46  46 100 S3        30.03S                  
BURLINGTON VT  MOCLDY    60  50  69 W6        30.01R                  
MT. WASHINGTON FOG       41  41 100 W39         N/A  VSB 0   WCI  28  
$$

NYZ052-076-171200-
EASTERN NEW YORK
  
CITY           SKY/WX    TMP DP  RH WIND       PRES   REMARKS
ALBANY         MOCLDY    52  52 100 S6        30.03R                  
NEW YORK CITY  MOCLDY    67  59  75 SW5       30.05R                  
$$
 
ANZALL-171200-
MARINE OBSERVATIONS
  
STATION/POSITION TIME  TEMP    WIND        PRES    VSBY  WAVE
                       AIR SEA DIR/SP/G                  HT/PER
                 (UTC) (F)     (DEG/KT/KT) (MB)    (MI)  (FT/S)
BOSTON BUOY      1050   63 64  200/ 12/ 14 1015.9F         2/11
BUZZARDS BAY     1000          250/ 12/ 12 1019.0S
NANTUCKET SOUND  1040      69  260/ 14/ 16   N/A
MASS BAY-STELLWA 1004   63     250/ 14/ 17 1014.7F  1 7/8  2/ 3
ISLE OF SHOALS   1000   60     240/ 18/ 19 1015.6R
S OF BLOCK IS    1026      70                N/A           5/11
$$

......................KEY.........................
  SKY/WX - SKY CONDITION/PRESENT WEATHER
  TMP    - TEMPERATURE IN FAHRENHEIT
  DWPT   - DEWPOINT IN FAHRENHEIT
  RH     - RELATIVE HUMIDITY IN PERCENT
  WIND   - DIRECTION AND SPEED IN MPH
  PRES   - MEAN SEA LEVEL PRESSURE IN INCHES OF HG
  WCI    - WIND CHILL INDEX
  VSB    - VISIBILITY IN MILES
  HX     - HEAT INDEX
  TC     - TEMPERATURE IN CELSIUS
  VRB    - VARIABLE WIND DIRECTION
  N/A    - NOT AVAILABLE
  
      

Other recent Regional Weather Roundups

Sun Sep 20, 11:05pm

Sun Sep 20, 10:04pm

Sun Sep 20, 9:04pm

Sun Sep 20, 8:05pm

Sun Sep 20, 7:04pm

Sun Sep 20, 6:04pm

Sun Sep 20, 5:04pm

Sun Sep 20, 4:04pm

Sun Sep 20, 3:05pm

Sun Sep 20, 2:05pm

Sun Sep 20, 1:04pm

Sun Sep 20, 12:04pm

Sun Sep 20, 11:04am

Sun Sep 20, 10:04am

Sun Sep 20, 9:04am

Sun Sep 20, 8:04am

Sun Sep 20, 7:04am

Sun Sep 20, 6:04am

Sun Sep 20, 5:04am

Sun Sep 20, 4:04am

Sun Sep 20, 3:05am

Sun Sep 20, 2:04am

Sun Sep 20, 1:04am

Sun Sep 20, 12:04am

Sat Sep 19, 11:04pm

Sat Sep 19, 10:04pm

Sat Sep 19, 9:04pm

Sat Sep 19, 8:05pm

Sat Sep 19, 7:04pm

Sat Sep 19, 6:05pm

Sat Sep 19, 5:04pm

Sat Sep 19, 4:04pm

Sat Sep 19, 3:04pm

Sat Sep 19, 2:04pm

Sat Sep 19, 1:05pm

Sat Sep 19, 12:04pm

Sat Sep 19, 11:04am

Sat Sep 19, 10:04am

Sat Sep 19, 9:05am

Sat Sep 19, 8:04am

Sat Sep 19, 7:04am

Sat Sep 19, 6:04am

Sat Sep 19, 5:04am

Sat Sep 19, 4:04am

Sat Sep 19, 3:04am

Sat Sep 19, 2:04am

Sat Sep 19, 1:04am

Sat Sep 19, 12:04am

Fri Sep 18, 11:05pm

Fri Sep 18, 10:04pm

Fri Sep 18, 9:04pm

Fri Sep 18, 8:04pm

Fri Sep 18, 7:04pm

Fri Sep 18, 6:04pm

Fri Sep 18, 5:05pm

Fri Sep 18, 4:04pm

Fri Sep 18, 3:05pm

Fri Sep 18, 2:04pm

Fri Sep 18, 1:04pm

Fri Sep 18, 12:04pm

Fri Sep 18, 11:05am

Fri Sep 18, 10:05am

Fri Sep 18, 9:04am

Fri Sep 18, 8:04am

Fri Sep 18, 7:04am

Fri Sep 18, 6:04am

Fri Sep 18, 5:04am

Fri Sep 18, 4:04am

Fri Sep 18, 3:04am

Fri Sep 18, 2:04am

Fri Sep 18, 1:04am

Fri Sep 18, 12:04am

Thu Sep 17, 11:05pm

Thu Sep 17, 10:04pm

Thu Sep 17, 9:04pm

Thu Sep 17, 8:05pm

Thu Sep 17, 7:04pm

Thu Sep 17, 6:04pm

Thu Sep 17, 5:04pm

Thu Sep 17, 4:04pm

Thu Sep 17, 3:05pm

Thu Sep 17, 2:04pm

Thu Sep 17, 1:04pm

Thu Sep 17, 12:04pm

Thu Sep 17, 11:04am

Thu Sep 17, 10:04am

Thu Sep 17, 9:04am

Thu Sep 17, 8:04am

Thu Sep 17, 6:04am

Thu Sep 17, 5:04am

Thu Sep 17, 4:04am

Thu Sep 17, 3:04am

Thu Sep 17, 2:05am

Thu Sep 17, 1:05am

Thu Sep 17, 12:04am

Wed Sep 16, 11:04pm

Wed Sep 16, 10:04pm

Wed Sep 16, 9:04pm

Wed Sep 16, 8:05pm

Wed Sep 16, 7:04pm

Wed Sep 16, 6:04pm

Wed Sep 16, 5:04pm

Wed Sep 16, 4:04pm

Wed Sep 16, 3:04pm

Wed Sep 16, 2:04pm

Wed Sep 16, 1:04pm

Wed Sep 16, 12:04pm

Wed Sep 16, 11:04am

Wed Sep 16, 10:04am

Wed Sep 16, 9:04am

Wed Sep 16, 8:04am

Wed Sep 16, 7:04am

Wed Sep 16, 6:04am

Wed Sep 16, 5:04am

Wed Sep 16, 4:04am

Wed Sep 16, 3:04am

Wed Sep 16, 2:04am

Wed Sep 16, 1:04am

Wed Sep 16, 12:05am

Tue Sep 15, 11:04pm

Tue Sep 15, 10:04pm

Tue Sep 15, 9:04pm

Tue Sep 15, 8:04pm

Tue Sep 15, 7:04pm

Tue Sep 15, 6:04pm

Tue Sep 15, 5:04pm

Tue Sep 15, 4:05pm

Tue Sep 15, 3:04pm

Tue Sep 15, 2:04pm

Tue Sep 15, 1:04pm

Tue Sep 15, 12:04pm

Tue Sep 15, 11:04am

Tue Sep 15, 10:04am

Tue Sep 15, 9:04am

Tue Sep 15, 8:04am

Tue Sep 15, 7:04am

Tue Sep 15, 6:04am

Tue Sep 15, 5:04am

Tue Sep 15, 4:04am

Tue Sep 15, 3:04am

Tue Sep 15, 2:04am

Tue Sep 15, 1:04am

Tue Sep 15, 12:05am

Mon Sep 14, 11:04pm

Mon Sep 14, 10:04pm

Mon Sep 14, 9:04pm

Mon Sep 14, 8:04pm

Mon Sep 14, 7:04pm

Mon Sep 14, 6:04pm

Mon Sep 14, 5:04pm

Mon Sep 14, 4:05pm

Mon Sep 14, 3:04pm

Mon Sep 14, 2:05pm

Mon Sep 14, 1:04pm

Mon Sep 14, 12:04pm

Mon Sep 14, 11:04am

Mon Sep 14, 10:05am

Mon Sep 14, 9:04am

Mon Sep 14, 8:04am

Mon Sep 14, 7:04am

Mon Sep 14, 6:04am

Mon Sep 14, 5:04am

Mon Sep 14, 4:04am

Mon Sep 14, 3:04am

Mon Sep 14, 2:04am

Mon Sep 14, 1:04am

Mon Sep 14, 12:04am

Meta data:

ID: 8d085908-d008-4140-bf47-f48344dcd862
Link: https://api.weather.gov/products/8d085908-d008-4140-bf47-f48344dcd862